Lid_Strength_Index
4 4 4 3 3 3 2 2 2 3 3 3 3 3 3 3 3 5 9 6 5 3 3 8 8 9 9 11 11 11 17 19 17 16 14 12 13 11 10 11 10 9 10 9 7
5 4 4 3 3 3 2 2 2 3 3 3 4 3 3 3 6 8 5 4 3 3 6 9 10 9 12 11 11 13 17 16 13 14 14 12 13 12 12 12 12 11 9 8 8
5 5 4 4 3 3 2 2 3 3 4 4 3 4 3 4 9 9 4 4 4 4 6 7 8 9 12 11 12 13 15 12 11 11 11 11 12 11 13 14 12 12 11 9 9
5 5 5 5 4 3 3 3 3 4 4 4 4 4 4 6 16 7 3 5 4 6 7 8 9 12 13 14 11 15 12 12 11 10 11 12 11 12 12 12 10 10 10 10 10
5 5 5 5 4 3 3 4 4 4 4 4 4 4 7 12 11 5 4 6 7 8 9 10 11 12 14 13 12 14 13 11 11 11 11 11 12 13 12 11 10 9 9 9 9
5 5 5 5 4 4 4 4 4 4 5 4 4 4 9 14 7 7 8 8 7 8 9 10 11 10 12 13 14 12 12 12 12 12 11 12 12 13 12 11 11 10 10 9 9
5 5 5 5 5 5 4 5 5 5 5 4 4 6 11 13 9 8 8 9 8 8 10 9 9 11 11 14 11 12 15 13 12 12 13 11 14 14 11 10 11 11 11 10 9
5 5 5 5 5 5 5 5 6 5 5 4 4 8 14 8 9 9 8 9 8 7 8 8 8 10 12 11 12 14 15 17 12 12 11 11 17 12 10 10 11 12 12 11 10
4 5 5 5 5 5 5 5 6 5 5 4 8 10 14 6 10 9 9 10 9 8 8 7 9 12 12 15 18 16 20 18 16 12 12 13 15 11 9 9 12 13 13 13 12
4 5 5 5 5 5 5 5 6 7 6 8 9 14 12 12 10 9 8 8 10 10 10 11 12 15 16 18 24 19 18 16 16 14 13 14 14 12 12 13 14 15 15 14 13
4 5 5 5 5 6 7 10 12 11 12 14 14 13 11 10 8 10 9 9 10 12 16 13 16 18 17 15 14 14 15 16 15 13 14 15 14 13 12 14 15 16 16 15 15
5 5 5 5 6 6 9 12 12 12 15 12 11 11 10 10 12 11 9 12 13 16 15 16 18 15 13 13 14 14 15 16 14 13 14 15 15 14 13 14 15 15 16 16 15
5 5 5 5 6 9 12 12 9 10 15 14 12 12 12 11 13 12 10 12 14 16 16 18 15 12 13 14 15 14 15 16 16 14 13 15 17 15 13 13 15 14 15 15 15
5 5 5 5 9 11 13 10 9 9 18 16 14 12 11 11 14 10 10 12 14 16 16 16 13 13 15 15 14 18 13 14 15 16 20 14 23 18 16 16 16 16 16 16 15
5 5 6 6 11 13 12 9 9 11 25 16 14 10 11 13 13 12 10 12 16 16 17 17 15 15 19 15 13 18 14 14 14 16 16 15 19 19 17 19 18 17 16 16 14
5 6 7 9 10 11 10 10 11 19 25 18 14 15 15 13 13 12 12 11 12 15 15 16 12 14 15 13 13 13 15 13 12 17 22 17 18 21 21 20 19 18 17 16 15
5 6 8 9 12 11 10 12 19 23 18 21 19 16 16 16 15 14 16 17 18 23 22 17 15 14 13 17 15 16 21 28 25 24 20 15 20 21 18 18 18 19 18 16 14
5 7 8 10 10 10 12 16 23 22 23 17 17 17 18 17 17 16 17 19 16 18 23 26 24 17 15 20 23 19 23 30 31 26 22 16 22 20 17 17 18 18 17 16 15
6 10 10 10 10 11 14 22 21 20 18 19 17 20 20 17 17 17 18 19 17 18 25 26 24 15 15 16 18 21 23 17 25 22 23 19 17 16 15 18 19 20 18 18 16
10 11 11 11 11 13 17 20 22 18 18 17 21 20 25 21 20 19 19 17 17 15 16 21 24 16 15 17 17 19 18 24 22 31 31 23 23 25 22 23 21 21 20 19 17
11 15 11 11 12 15 20 22 20 17 16 19 22 21 20 21 19 20 18 16 16 15 15 17 23 20 18 25 27 22 24 21 20 21 28 29 29 22 23 22 23 21 19 18 17
11 17 12 12 16 17 22 22 16 18 17 17 17 18 22 21 21 18 18 16 15 15 19 16 22 26 24 21 19 19 27 24 26 25 21 23 23 19 21 21 21 20 18 17 16
14 14 11 12 19 20 21 19 18 18 18 18 18 17 20 23 23 20 17 15 14 16 19 18 20 27 23 20 17 24 21 21 22 22 24 25 25 19 20 22 21 21 19 19 17
13 17 15 14 15 18 21 21 21 17 18 17 17 17 22 25 19 23 18 15 14 15 13 15 21 25 25 23 26 25 22 22 23 28 28 26 27 26 25 26 25 24 22 22 21
13 17 16 18 18 18 18 19 20 21 18 17 18 20 21 25 25 25 18 16 15 13 15 17 21 26 26 25 26 27 25 25 29 27 29 26 28 27 26 25 25 24 23 22 22
16 17 17 17 17 18 17 19 19 19 19 20 22 20 21 23 20 22 18 17 17 16 17 17 24 22 25 26 27 26 23 25 25 29 28 27 29 26 26 25 26 25 25 25 25
13 14 13 17 17 18 18 18 18 18 18 18 18 20 21 19 17 17 15 16 16 20 19 21 24 26 28 24 22 24 26 29 30 29 27 30 26 25 27 28 28 27 26 26 26